Location: Tafessasset
(32.5899°N, 5.4824°W)
Time: 12:57:14
(UTC+00:00)

Cosmos 2263 - Pass Details

Date: 18 February 2020
Orbit: 832 x 865 km, 70.9° (Epoch: 29 March)

Event Time Altitude Azimuth Distance (km) Brightness Sun altitude
Rises 06:32:45 0° 335° (NNW) 3,414 7.0 -7.0°
Reaches altitude 10° 06:35:14 10° 331° (NNW) 2,471 6.3 -6.5°
Maximum altitude 06:40:47 59° 253° (WSW) 962 4.3 -5.3°
Drops below altitude 10° 06:46:17 10° 175° (S) 2,438 6.8 -4.2°
Sets 06:48:43 0° 171° (S) 3,365 7.6 -3.7°
